[[{"header":{"parameterUnit":"m.s-1","parameterCategory":1,"la1":30.2991,"la2":30.254,"lo1":-89.0895,"lo2":-89.0444,"dy":0.0017,"dx":0.0017,"nx":28,"ny":28,"refTime":"2023-10-26T21:00:00:Z","depth":0,"parameterNumber":2,"parameterNumberName":"U-component_of_WINDS"},"data":[0,0,0,0,0,0,0,0,0,0,0,0,0,0,0,0,0,0,0,0,0,0,0,0,0,0,0,0,0,0,0,0,0,0,0,0,0,0,0,0,0,0,0,0,0,0,0,0,0,0,0,0,0,0,0,0,0,0,-4.9421,-4.9422,0,-4.951,-4.9511,-4.9512,-4.9451,-4.9448,-4.9446,-4.9443,-4.9532,-4.9537,-4.9541,0,0,0,0,0,0,0,0,0,0,0,0,0,-4.9201,-4.9205,-4.9421,-4.9422,-4.9423,-4.9509,-4.9511,-4.9512,-4.9451,-4.9448,-4.9445,-4.9442,-4.953,-4.9536,-4.9542,0,0,0,0,0,0,0,0,0,0,0,0,0,-4.9293,-4.9206,-4.9421,-4.9404,-4.9403,-4.9509,-4.9511,-4.9512,-4.9452,-4.9448,-4.9444,-4.944,-4.9528,-4.9535,-4.9543,-4.967,0,0,-4.9565,-4.9568,0,0,0,0,0,0,0,0,-4.9288,-4.9302,-4.9405,-4.9405,-4.9404,-4.9465,-4.9465,-4.9565,-4.9453,-4.9433,-4.9443,-4.9438,-4.9513,-4.9521,-4.9547,-4.9674,-4.9678,-4.9566,-4.957,-4.9573,-4.9576,0,0,0,0,0,0,0,-4.9282,-4.9297,-4.9456,-4.9407,-4.9406,-4.9392,-4.94,-4.9484,-4.9495,-4.9435,-4.9431,-4.9442,-4.9512,-4.954,-4.9548,-4.968,-4.9566,-4.9572,-4.9577,-4.958,-4.9918,-4.9923,0,0,0,0,0,0,-4.9277,-4.9292,-4.9453,-4.9459,-4.9335,-4.9399,-4.9409,-4.945,-4.9494,-4.9497,-4.9445,-4.9439,-4.9529,-4.954,-4.9551,-4.9704,-4.9573,-4.958,-4.9585,-4.9914,-4.9919,-4.9924,0,0,0,0,0,0,-4.9272,-4.9292,-4.945,-4.9375,-4.9394,-4.9407,-4.9454,-4.9454,-4.9481,-4.9502,-4.9504,-4.9472,-4.9526,-4.9541,-4.9642,-4.9706,-4.9584,-4.959,-4.9908,-4.9915,-4.9922,-5.001,0,0,0,0,0,0,-4.9266,-4.9291,-4.9339,-4.9376,-4.9398,-4.9538,-4.9458,-4.9458,-4.9494,-4.9487,-4.9527,-4.953,-4.9524,-4.9631,-4.9649,-4.9714,-4.9596,-4.9903,-4.9911,-4.992,-5.0001,-5.0019,-5.0034,0,0,0,0,0,-4.9259,-4.9359,-4.9341,-4.9361,-4.9458,-4.9542,-4.9555,-4.9546,-4.95,-4.9549,-4.9562,-4.9529,-4.9697,-4.9642,-4.9662,-4.973,-4.9898,-4.9909,-4.9919,-4.9993,-5.0015,-5.0033,0,0,0,0,0,0,-4.9327,-4.9364,-4.9344,-4.946,-4.9499,-4.9532,-4.9592,-4.9569,-4.9621,-4.9612,-4.9599,-4.9609,-4.9715,-4.9733,-4.9671,-4.9856,-4.979,-4.9805,-4.984,-4.9861,-4.9877,-4.9869,-4.9602,0,0,0,0,0,-4.9356,-4.9422,-4.945,-4.9549,-4.957,-4.9579,-4.9615,-4.9606,-4.9645,-4.9661,-4.9681,-4.9721,-4.9782,-4.9823,-4.9881,-5.0005,-5.0013,-5.0061,-5.0078,-5.0091,-5.0103,-5.0171,-5.0193,-4.9958,-4.9958,-4.9958,0,0,-4.9416,-4.9444,-4.9485,-4.9564,-4.9593,-4.9661,-4.9592,-4.9667,-4.9717,-4.9672,-4.9768,-4.9785,-4.9829,-4.9942,-4.9992,-4.996,-5.0171,-5.0104,-5.0115,-5.0119,-5.0184,-5.0206,-5.0225,-4.9965,-4.9964,-4.9963,0,0,-4.9559,-4.9587,-4.9673,-4.9704,-4.975,-4.9756,-4.9777,-4.9815,-4.9825,-4.9922,-4.9889,-4.995,-5.0056,-5.0089,-5.0119,-5.0279,-5.025,-5.0299,-5.0383,-5.0449,-5.0468,-5.0484,-5.054,-5.0561,-5.0311,-5.0312,-5.0312,0,-4.9626,-4.9728,-4.972,-4.9798,-4.9833,-4.9798,-4.9885,-4.9916,-4.9978,-5.0003,-4.9967,-5.0101,-5.0128,-5.0248,-5.0288,-5.0314,-5.0337,-5.0292,-5.0466,-5.0482,-5.0497,-5.0551,-5.0572,-5.0317,-5.0316,-5.0316,-5.0315,0,-4.9809,-4.988,-4.9944,-5.0006,-5.005,-5.0132,-5.0137,-5.0182,-5.0171,-5.0181,-5.0281,-5.0313,-5.0377,-5.0406,-5.0394,-5.0525,-5.0504,-5.0467,-5.04,-5.0525,-5.0575,-5.0596,-5.0325,-5.0323,-5.0321,-5.032,0,0,-4.9993,-5.0053,-5.0076,-5.0105,-5.0154,-5.0209,-5.0291,-5.0355,-5.0394,-5.0439,-5.0507,-5.06,-5.0567,-5.0602,-5.0595,-5.0654,-5.0778,-5.061,-5.061,-5.0639,-5.0925,-5.095,-5.0974,-5.0761,-5.0765,-5.0768,-5.0921,0,-5.0137,-5.028,-5.0277,-5.0409,-5.0475,-5.0445,-5.0516,-5.0555,-5.0568,-5.0626,-5.064,-5.0705,-5.0657,-5.0678,-5.0735,-5.0751,-5.0835,-5.0741,-5.0823,-5.0826,-5.0811,-5.1001,-5.1028,-5.117,-5.094,-5.0944,-5.0946,0,-5.0324,-5.0377,-5.0516,-5.0558,-5.0586,-5.065,-5.0709,-5.0766,-5.081,-5.0815,-5.0856,-5.0841,-5.0924,-5.0858,-5.0973,-5.0909,-5.0943,-5.0957,-5.0963,-5.0967,-5.0892,-5.1009,-5.1215,-5.1236,-5.0977,-5.0975,-5.0972,0,-5.0443,-5.0549,-5.0646,-5.0672,-5.0724,-5.077,-5.0793,-5.0834,-5.0873,-5.0926,-5.0951,-5.1013,-5.1047,-5.1095,-5.1098,-5.1049,-5.1214,-5.1147,-5.122,-5.122,-5.1253,-5.1251,-5.1466,-5.128,-5.128,-5.1279,-5.1279,0,-5.0603,-5.0689,-5.0701,-5.076,-5.0856,-5.0854,-5.0949,-5.0969,-5.1006,-5.1069,-5.1047,-5.1107,-5.1107,-5.1169,-5.1171,-5.1267,-5.1282,-5.1289,-5.1288,-5.1289,-5.1288,-5.1309,-5.1299,-5.1285,-5.1284,-5.1283,-5.1282,0,-5.075,-5.0762,-5.0865,-5.0908,-5.092,-5.0989,-5.1025,-5.1082,-5.1095,-5.1175,-5.1194,-5.1213,-5.1285,-5.1293,-5.1376,-5.1378,-5.1492,-5.1482,-5.1477,-5.1475,-5.1547,-5.1539,-5.1781,-5.1812,-5.1608,-5.161,-5.1612,0,-5.085,-5.0916,-5.0966,-5.1007,-5.1034,-5.11,-5.1141,-5.1143,-5.1186,-5.1244,-5.1294,-5.1364,-5.1419,-5.1535,-5.1556,-5.1621,-5.161,-5.1691,-5.1619,-5.162,-5.161,-5.1605,-5.1612,-5.1703,-5.1706,-5.1708,-5.1709,0,-5.1026,-5.1029,-5.1089,-5.1153,-5.1203,-5.1253,-5.1299,-5.1334,-5.1342,-5.1392,-5.1466,-5.1509,-5.1596,-5.1665,-5.1729,-5.1753,-5.1733,-5.1732,-5.1752,-5.1753,-5.1747,-5.175,-5.1513,-5.1726,-5.1724,-5.1723,-5.1722,-5.1721,-5.1151,-5.1209,-5.1254,-5.1322,-5.1358,-5.1403,-5.1459,-5.148,-5.1542,-5.1612,-5.161,-5.1691,-5.1736,-5.182,-5.185,-5.1913,-5.1887,-5.1916,-5.1923,-5.193,-5.1936,-5.1739,-5.1925,-5.1925,-5.1924,-5.1924,-5.1924,0,-5.1325,-5.1353,-5.1417,-5.1484,-5.1538,-5.1517,-5.1568,-5.1615,-5.1687,-5.1731,-5.1787,-5.1872,-5.1941,-5.197,-5.2037,-5.2082,-5.2075,-5.21,-5.2095,-5.2101,-5.1957,-5.1932,-5.2105,-5.2105,-5.2105,-5.2105,-5.2105,-5.2105,-5.1421,-5.1518,-5.1527,-5.1642,-5.167,-5.175,-5.1781,-5.1823,-5.1858,-5.1955,-5.2012,-5.2031,-5.207,-5.214,-5.2202,-5.2209,-5.2234,-5.2263,-5.2266,-5.2129,-5.2111,-5.2093,-5.207,-5.2269,-5.2269,-5.2404,-5.2406,-5.2407]},{"header":{"parameterUnit":"m.s-1","parameterCategory":1,"la1":30.2991,"la2":30.254,"lo1":-89.0895,"lo2":-89.0444,"dy":0.0017,"dx":0.0017,"nx":28,"ny":28,"refTime":"2023-10-26T21:00:00:Z","depth":0,"parameterNumber":3,"parameterNumberName":"V-component_of_WINDS"},"data":[0,0,0,0,0,0,0,0,0,0,0,0,0,0,0,0,0,0,0,0,0,0,0,0,0,0,0,0,0,0,0,0,0,0,0,0,0,0,0,0,0,0,0,0,0,0,0,0,0,0,0,0,0,0,0,0,0,0,2.0832,2.0833,0,2.0869,2.087,2.087,2.0853,2.0852,2.0851,2.085,2.0886,2.0888,2.0889,0,0,0,0,0,0,0,0,0,0,0,0,0,2.0748,2.075,2.0832,2.0833,2.0833,2.0869,2.087,2.087,2.0853,2.0852,2.085,2.0849,2.0885,2.0887,2.089,0,0,0,0,0,0,0,0,0,0,0,0,0,2.0785,2.075,2.0832,2.0829,2.0829,2.0869,2.087,2.087,2.0853,2.0852,2.085,2.0849,2.0884,2.0887,2.089,2.0935,0,0,2.0898,2.0899,0,0,0,0,0,0,0,0,2.0783,2.0788,2.0829,2.0829,2.0829,2.0855,2.0853,2.0892,2.0853,2.0844,2.085,2.0848,2.0877,2.088,2.089,2.0936,2.0938,2.0898,2.09,2.0901,2.0902,0,0,0,0,0,0,0,2.078,2.0786,2.0847,2.083,2.083,2.0826,2.083,2.086,2.0867,2.0845,2.0843,2.0848,2.0876,2.0887,2.089,2.0938,2.0898,2.0901,2.0902,2.0904,2.1027,2.1028,0,0,0,0,0,0,2.0778,2.0784,2.0846,2.0848,2.0802,2.0829,2.0833,2.0848,2.0867,2.0869,2.0849,2.0847,2.0883,2.0887,2.0892,2.0947,2.0901,2.0904,2.0905,2.1025,2.1027,2.1029,0,0,0,0,0,0,2.0776,2.0783,2.0844,2.0816,2.0823,2.0832,2.0849,2.085,2.086,2.0871,2.0872,2.0859,2.0882,2.0888,2.0925,2.0948,2.0905,2.0908,2.1023,2.1026,2.1028,2.1058,0,0,0,0,0,0,2.0774,2.0783,2.0799,2.0816,2.0825,2.0877,2.085,2.0851,2.0865,2.0863,2.088,2.0881,2.0882,2.0921,2.0928,2.0951,2.091,2.1021,2.1024,2.1027,2.1055,2.1061,2.1066,0,0,0,0,0,2.0771,2.0805,2.08,2.0808,2.0846,2.0878,2.0883,2.0883,2.0867,2.0884,2.0892,2.0881,2.0945,2.0925,2.0932,2.0957,2.102,2.1024,2.1027,2.1052,2.1059,2.1066,0,0,0,0,0,0,2.0789,2.0807,2.0802,2.0843,2.0859,2.0875,2.0896,2.089,2.091,2.0907,2.0906,2.091,2.0949,2.0957,2.0934,2.1003,2.098,2.0985,2.0996,2.1004,2.1009,2.1006,2.0912,0,0,0,0,0,2.0798,2.0823,2.0837,2.0872,2.0881,2.0888,2.0901,2.09,2.0917,2.0923,2.0933,2.0949,2.0973,2.0989,2.1011,2.1056,2.106,2.1077,2.1083,2.1087,2.1092,2.1119,2.1127,2.1041,2.1041,2.1041,0,0,2.0817,2.083,2.0845,2.0876,2.0889,2.0915,2.0893,2.0921,2.0941,2.0927,2.0963,2.0972,2.099,2.1032,2.1051,2.1039,2.1117,2.1092,2.1096,2.1098,2.1123,2.1131,2.1139,2.1044,2.1043,2.1043,0,0,2.0864,2.0876,2.0908,2.0922,2.0941,2.0946,2.0954,2.0971,2.0977,2.1013,2.1005,2.1028,2.1069,2.1083,2.1096,2.1153,2.1144,2.116,2.119,2.1216,2.1223,2.1229,2.1251,2.1258,2.1165,2.1165,2.1165,0,2.0885,2.0924,2.0924,2.0954,2.0969,2.096,2.0993,2.1006,2.1032,2.1042,2.103,2.1083,2.1094,2.1141,2.1155,2.1165,2.1175,2.1158,2.1222,2.1228,2.1234,2.1254,2.1262,2.1167,2.1166,2.1166,2.1166,0,2.0949,2.0977,2.1,2.1027,2.1044,2.1075,2.1082,2.1099,2.1098,2.1104,2.1143,2.1157,2.1183,2.1194,2.1192,2.1241,2.1234,2.1222,2.1199,2.1244,2.1263,2.1271,2.1169,2.1169,2.1168,2.1168,0,0,2.1007,2.1037,2.1045,2.1059,2.1082,2.1103,2.1135,2.1162,2.1178,2.1197,2.1224,2.1261,2.125,2.1265,2.1264,2.1287,2.1334,2.1273,2.1273,2.1285,2.1392,2.1401,2.1411,2.1329,2.1331,2.1332,2.1391,0,2.1057,2.1113,2.1116,2.1167,2.1193,2.1187,2.1215,2.1232,2.124,2.1264,2.1272,2.1299,2.1283,2.1292,2.1314,2.1324,2.1356,2.132,2.1355,2.1357,2.1351,2.1421,2.143,2.1485,2.1398,2.14,2.1401,0,2.1122,2.1145,2.1199,2.1221,2.1233,2.1258,2.1284,2.1307,2.1328,2.1332,2.135,2.1347,2.1381,2.1358,2.1405,2.138,2.1395,2.1403,2.1405,2.1408,2.1381,2.1427,2.1502,2.1511,2.1412,2.1411,2.1411,0,2.116,2.1205,2.1244,2.1256,2.1282,2.13,2.1312,2.1331,2.1348,2.1372,2.1383,2.141,2.1425,2.1446,2.1451,2.1433,2.1499,2.1475,2.1504,2.1504,2.1518,2.1517,2.1598,2.1527,2.1527,2.1527,2.1527,0,2.1216,2.125,2.1262,2.1286,2.1324,2.1328,2.1366,2.1377,2.1395,2.1422,2.1417,2.1442,2.1447,2.1474,2.1478,2.1518,2.1524,2.1529,2.153,2.153,2.153,2.154,2.1536,2.1529,2.1528,2.1528,2.1528,0,2.1265,2.1275,2.1317,2.134,2.1346,2.1374,2.1393,2.1417,2.1425,2.1459,2.1467,2.148,2.1512,2.1519,2.1556,2.1559,2.1607,2.1603,2.16,2.16,2.1629,2.1627,2.1719,2.1732,2.1652,2.1653,2.1654,0,2.13,2.1326,2.1353,2.1371,2.1384,2.1413,2.1431,2.1437,2.1456,2.1484,2.1505,2.1536,2.1561,2.1612,2.1625,2.1654,2.1651,2.1682,2.1656,2.1656,2.1653,2.1652,2.1656,2.1687,2.1688,2.1688,2.1689,0,2.1362,2.1366,2.1393,2.1423,2.1445,2.1468,2.149,2.1505,2.1515,2.1537,2.157,2.1589,2.1629,2.166,2.169,2.1702,2.1698,2.1698,2.1706,2.1706,2.1704,2.1707,2.1614,2.1695,2.1695,2.1694,2.1694,2.1694,2.1406,2.143,2.1453,2.1484,2.1502,2.1524,2.1548,2.1561,2.1588,2.1621,2.1623,2.1659,2.1682,2.1722,2.1737,2.1766,2.1756,2.1768,2.1771,2.1774,2.1778,2.1699,2.1771,2.1771,2.1771,2.177,2.177,0,2.1468,2.1484,2.1512,2.1545,2.157,2.1565,2.159,2.1611,2.1643,2.1665,2.1691,2.173,2.1762,2.1779,2.181,2.183,2.1829,2.1838,2.1837,2.1841,2.1783,2.1773,2.1839,2.1839,2.1839,2.1839,2.1839,2.1839,2.1504,2.1545,2.1553,2.1604,2.1619,2.1655,2.1671,2.1691,2.1709,2.1754,2.178,2.1791,2.1812,2.1846,2.1875,2.1879,2.1891,2.1902,2.1905,2.1851,2.1844,2.1838,2.1828,2.1904,2.1905,2.196,2.1961,2.1961]}]]